START_TIME,STEP,MOV.,E45,t_acc.,ALAR?,t_acc.,A12,t_acc.,A24,t_acc.
1979-07-30 03:00:25.370 ,1,0,16.,4.8,656.,4.8,0.,4.8,0.,4.8
1979-07-30 03:00:30.170 ,1,0,7.,4.8,624.,4.8,0.,4.8,0.,4.8
1979-07-30 03:00:34.970 ,1,0,17.,4.8,640.,4.8,0.,4.8,0.,4.8
1979-07-30 03:00:39.770 ,1,0,9.,4.8,608.,4.8,0.,4.8,0.,4.8
1979-07-30 03:00:44.570 ,1,0,12.,4.8,640.,4.8,0.,4.8,0.,4.8
1979-07-30 03:00:49.370 ,2,0,18.,4.8,672.,4.8,0.,4.8,0.,4.8
1979-07-30 03:00:54.170 ,2,0,13.,4.8,608.,4.8,0.,4.8,0.,4.8
1979-07-30 03:00:58.970 ,2,0,14.,4.8,624.,4.8,0.,4.8,0.,4.8
1979-07-30 03:01:03.770 ,2,0,6.,4.8,624.,4.8,0.,4.8,0.,4.8
1979-07-30 03:01:08.570 ,2,0,17.,4.8,640.,4.8,0.,4.8,0.,4.8
1979-07-30 03:01:13.370 ,2,0,11.,4.8,688.,4.8,0.,4.8,0.,4.8
1979-07-30 03:01:18.170 ,2,0,8.,4.8,656.,4.8,0.,4.8,0.,4.8
1979-07-30 03:01:22.970 ,2,0,11.,4.8,608.,4.8,0.,4.8,0.,4.8
1979-07-30 03:01:27.770 ,2,0,8.,4.8,624.,4.8,0.,4.8,0.,4.8
1979-07-30 03:01:32.570 ,2,0,14.,4.8,624.,4.8,0.,4.8,0.,4.8
1979-07-30 03:01:37.370 ,3,0,14.,4.8,608.,4.8,0.,4.8,0.,4.8
1979-07-30 03:01:42.170 ,3,0,6.,4.8,624.,4.8,0.,4.8,0.,4.8
1979-07-30 03:01:46.970 ,3,0,5.,4.8,624.,4.8,0.,4.8,0.,4.8
1979-07-30 03:01:51.770 ,3,0,9.,4.8,624.,4.8,0.,4.8,0.,4.8
1979-07-30 03:01:56.570 ,3,0,12.,4.8,608.,4.8,0.,4.8,0.,4.8
1979-07-30 03:02:01.370 ,3,0,8.,4.8,688.,4.8,0.,4.8,0.,4.8
1979-07-30 03:02:06.170 ,3,0,8.,4.8,672.,4.8,0.,4.8,0.,4.8
1979-07-30 03:02:10.970 ,3,0,8.,4.8,688.,4.8,0.,4.8,0.,4.8
1979-07-30 03:02:15.770 ,3,0,11.,4.8,656.,4.8,0.,4.8,0.,4.8
1979-07-30 03:02:20.570 ,3,0,12.,4.8,656.,4.8,0.,4.8,0.,4.8
1979-07-30 03:02:25.370 ,4,0,7.,4.8,624.,4.8,0.,4.8,0.,4.8
1979-07-30 03:02:30.170 ,4,0,11.,4.8,640.,4.8,0.,4.8,0.,4.8
1979-07-30 03:02:34.970 ,4,0,17.,4.8,672.,4.8,0.,4.8,0.,4.8
1979-07-30 03:02:39.770 ,4,0,9.,4.8,704.,4.8,0.,4.8,0.,4.8
1979-07-30 03:02:44.570 ,4,0,13.,4.8,736.,4.8,0.,4.8,0.,4.8
1979-07-30 03:02:49.370 ,4,0,13.,4.8,736.,4.8,0.,4.8,0.,4.8
1979-07-30 03:02:54.170 ,4,0,17.,4.8,704.,4.8,0.,4.8,0.,4.8
1979-07-30 03:02:58.970 ,4,0,15.,4.8,640.,4.8,0.,4.8,0.,4.8
1979-07-30 03:03:03.770 ,4,0,14.,4.8,672.,4.8,0.,4.8,0.,4.8
1979-07-30 03:03:08.570 ,4,0,17.,4.8,672.,4.8,0.,4.8,0.,4.8
1979-07-30 03:03:13.370 ,5,0,11.,4.8,720.,4.8,0.,4.8,0.,4.8
1979-07-30 03:03:18.170 ,5,0,11.,4.8,656.,4.8,0.,4.8,0.,4.8
1979-07-30 03:03:22.970 ,5,0,11.,4.8,688.,4.8,0.,4.8,0.,4.8
1979-07-30 03:03:27.770 ,5,0,15.,4.8,688.,4.8,0.,4.8,0.,4.8
1979-07-30 03:03:32.570 ,5,0,9.,4.8,704.,4.8,0.,4.8,0.,4.8
1979-07-30 03:03:37.370 ,5,0,12.,4.8,672.,4.8,0.,4.8,0.,4.8
1979-07-30 03:03:42.170 ,5,0,11.,4.8,688.,4.8,0.,4.8,0.,4.8
1979-07-30 03:03:46.970 ,5,0,10.,4.8,656.,4.8,0.,4.8,0.,4.8
1979-07-30 03:03:51.770 ,5,0,15.,4.8,672.,4.8,0.,4.8,0.,4.8
1979-07-30 03:03:56.570 ,5,0,14.,4.8,720.,4.8,0.,4.8,0.,4.8
1979-07-30 03:04:01.370 ,6,0,8.,4.8,672.,4.8,0.,4.8,0.,4.8
1979-07-30 03:04:06.170 ,6,0,11.,4.8,624.,4.8,0.,4.8,0.,4.8
1979-07-30 03:04:10.970 ,6,0,13.,4.8,608.,4.8,0.,4.8,0.,4.8
1979-07-30 03:04:15.770 ,6,0,14.,4.8,624.,4.8,0.,4.8,0.,4.8
1979-07-30 03:04:20.570 ,6,0,14.,4.8,656.,4.8,0.,4.8,0.,4.8
1979-07-30 03:04:25.360 ,6,0,14.,4.8,624.,4.8,0.,4.8,0.,4.8
1979-07-30 03:04:30.170 ,6,0,11.,4.8,640.,4.8,0.,4.8,0.,4.8
1979-07-30 03:04:34.960 ,6,0,11.,4.8,624.,4.8,0.,4.8,0.,4.8
1979-07-30 03:04:39.770 ,6,0,11.,4.8,672.,4.8,0.,4.8,0.,4.8
1979-07-30 03:04:44.570 ,6,0,16.,4.8,720.,4.8,0.,4.8,0.,4.8
1979-07-30 03:04:49.360 ,7,0,10.,4.8,640.,4.8,0.,4.8,0.,4.8
1979-07-30 03:04:54.170 ,7,0,7.,4.8,592.,4.8,0.,4.8,0.,4.8
1979-07-30 03:04:58.960 ,7,0,12.,4.8,624.,4.8,0.,4.8,0.,4.8
1979-07-30 03:05:03.770 ,7,0,12.,4.8,656.,4.8,0.,4.8,0.,4.8
1979-07-30 03:05:08.570 ,7,0,17.,4.8,640.,4.8,0.,4.8,0.,4.8
1979-07-30 03:05:13.360 ,7,0,12.,4.8,656.,4.8,0.,4.8,0.,4.8
1979-07-30 03:05:18.170 ,7,0,9.,4.8,640.,4.8,1.,4.8,0.,4.8
1979-07-30 03:05:22.960 ,7,0,15.,4.8,640.,4.8,0.,4.8,0.,4.8
1979-07-30 03:05:27.770 ,7,0,13.,4.8,672.,4.8,0.,4.8,0.,4.8
1979-07-30 03:05:32.570 ,7,0,19.,4.8,624.,4.8,0.,4.8,0.,4.8
1979-07-30 03:05:37.370 ,7,0,15.,4.8,592.,4.8,0.,4.8,0.,4.8
1979-07-30 03:05:42.170 ,7,0,8.,4.8,656.,4.8,0.,4.8,0.,4.8
1979-07-30 03:05:46.960 ,7,0,14.,4.8,624.,4.8,0.,4.8,0.,4.8
1979-07-30 03:05:51.770 ,7,0,10.,4.8,624.,4.8,0.,4.8,0.,4.8
1979-07-30 03:05:56.570 ,7,0,11.,4.8,656.,4.8,0.,4.8,0.,4.8
1979-07-30 03:06:01.360 ,7,0,9.,4.8,640.,4.8,0.,4.8,0.,4.8
1979-07-30 03:06:06.170 ,7,0,14.,4.8,656.,4.8,0.,4.8,0.,4.8
1979-07-30 03:06:10.960 ,7,0,12.,4.8,656.,4.8,0.,4.8,0.,4.8
1979-07-30 03:06:15.770 ,7,0,16.,4.8,640.,4.8,0.,4.8,1.,4.8
1979-07-30 03:06:20.570 ,7,0,12.,4.8,656.,4.8,0.,4.8,0.,4.8
1979-07-30 03:06:25.360 ,6,0,18.,4.8,624.,4.8,0.,4.8,0.,4.8
1979-07-30 03:06:30.170 ,6,0,13.,4.8,608.,4.8,0.,4.8,0.,4.8
1979-07-30 03:06:34.960 ,6,0,15.,4.8,656.,4.8,0.,4.8,0.,4.8
1979-07-30 03:06:39.770 ,6,0,11.,4.8,640.,4.8,0.,4.8,0.,4.8
1979-07-30 03:06:44.570 ,6,0,10.,4.8,608.,4.8,0.,4.8,0.,4.8
1979-07-30 03:06:49.360 ,6,0,4.,4.8,640.,4.8,0.,4.8,0.,4.8
1979-07-30 03:06:54.170 ,6,0,14.,4.8,640.,4.8,0.,4.8,0.,4.8
1979-07-30 03:06:58.960 ,6,0,16.,4.8,608.,4.8,0.,4.8,0.,4.8
1979-07-30 03:07:03.770 ,6,0,14.,4.8,656.,4.8,0.,4.8,0.,4.8
1979-07-30 03:07:08.570 ,6,0,16.,4.8,672.,4.8,0.,4.8,0.,4.8
1979-07-30 03:07:13.360 ,5,0,9.,4.8,656.,4.8,0.,4.8,0.,4.8
1979-07-30 03:07:18.170 ,5,0,13.,4.8,656.,4.8,0.,4.8,0.,4.8
1979-07-30 03:07:22.960 ,5,0,20.,4.8,688.,4.8,0.,4.8,0.,4.8
1979-07-30 03:07:27.770 ,5,0,11.,4.8,672.,4.8,0.,4.8,0.,4.8
1979-07-30 03:07:32.570 ,5,0,14.,4.8,720.,4.8,0.,4.8,0.,4.8
1979-07-30 03:07:37.360 ,5,0,8.,4.8,640.,4.8,0.,4.8,0.,4.8
1979-07-30 03:07:42.170 ,5,0,13.,4.8,672.,4.8,0.,4.8,0.,4.8
1979-07-30 03:07:46.960 ,5,0,16.,4.8,688.,4.8,0.,4.8,0.,4.8
1979-07-30 03:07:51.770 ,5,0,10.,4.8,672.,4.8,0.,4.8,0.,4.8
1979-07-30 03:07:56.570 ,5,0,8.,4.8,672.,4.8,0.,4.8,0.,4.8
1979-07-30 03:08:01.360 ,4,0,16.,4.8,688.,4.8,0.,4.8,0.,4.8
1979-07-30 03:08:06.170 ,4,0,10.,4.8,656.,4.8,0.,4.8,0.,4.8
1979-07-30 03:08:10.960 ,4,0,11.,4.8,704.,4.8,0.,4.8,0.,4.8
1979-07-30 03:08:15.770 ,4,0,15.,4.8,688.,4.8,0.,4.8,0.,4.8
1979-07-30 03:08:20.570 ,4,0,20.,4.8,720.,4.8,0.,4.8,0.,4.8
1979-07-30 03:08:25.360 ,4,0,8.,4.8,704.,4.8,0.,4.8,0.,4.8
1979-07-30 03:08:30.170 ,4,0,14.,4.8,672.,4.8,0.,4.8,0.,4.8
1979-07-30 03:08:34.970 ,4,0,12.,4.8,608.,4.8,0.,4.8,0.,4.8
1979-07-30 03:08:39.770 ,4,0,5.,4.8,704.,4.8,0.,4.8,0.,4.8
1979-07-30 03:08:44.570 ,4,0,13.,4.8,656.,4.8,0.,4.8,0.,4.8
1979-07-30 03:08:49.360 ,3,0,15.,4.8,688.,4.8,0.,4.8,0.,4.8
1979-07-30 03:08:54.170 ,3,0,9.,4.8,624.,4.8,0.,4.8,0.,4.8
1979-07-30 03:08:58.970 ,3,0,7.,4.8,640.,4.8,0.,4.8,0.,4.8
1979-07-30 03:09:03.770 ,3,0,7.,4.8,640.,4.8,0.,4.8,0.,4.8
1979-07-30 03:09:08.570 ,3,0,14.,4.8,640.,4.8,0.,4.8,0.,4.8
1979-07-30 03:09:13.360 ,3,0,8.,4.8,576.,4.8,0.,4.8,0.,4.8
1979-07-30 03:09:18.160 ,3,0,7.,4.8,656.,4.8,0.,4.8,0.,4.8
1979-07-30 03:09:22.970 ,3,0,4.,4.8,672.,4.8,0.,4.8,0.,4.8
1979-07-30 03:09:27.770 ,3,0,9.,4.8,624.,4.8,0.,4.8,0.,4.8
1979-07-30 03:09:32.570 ,3,0,7.,4.8,640.,4.8,0.,4.8,0.,4.8
1979-07-30 03:09:37.360 ,2,0,3.,4.8,672.,4.8,0.,4.8,0.,4.8
1979-07-30 03:09:42.170 ,2,0,9.,4.8,640.,4.8,0.,4.8,0.,4.8
1979-07-30 03:09:46.970 ,2,0,11.,4.8,640.,4.8,0.,4.8,0.,4.8
1979-07-30 03:09:51.770 ,2,0,15.,4.8,624.,4.8,0.,4.8,0.,4.8
1979-07-30 03:09:56.570 ,2,0,13.,4.8,656.,4.8,0.,4.8,0.,4.8
1979-07-30 03:10:01.360 ,2,0,11.,4.8,640.,4.8,0.,4.8,0.,4.8
1979-07-30 03:10:06.170 ,2,0,7.,4.8,656.,4.8,0.,4.8,0.,4.8
1979-07-30 03:10:10.970 ,2,0,8.,4.8,608.,4.8,0.,4.8,0.,4.8
1979-07-30 03:10:15.770 ,2,0,12.,4.8,656.,4.8,0.,4.8,0.,4.8
1979-07-30 03:10:20.570 ,2,0,10.,4.8,624.,4.8,0.,4.8,0.,4.8
1979-07-30 03:10:25.360 ,1,0,6.,4.8,672.,4.8,0.,4.8,0.,4.8
1979-07-30 03:10:30.160 ,1,0,11.,4.8,640.,4.8,0.,4.8,0.,4.8
1979-07-30 03:10:34.970 ,1,0,12.,4.8,688.,4.8,0.,4.8,0.,4.8
1979-07-30 03:10:39.770 ,1,0,10.,4.8,672.,4.8,0.,4.8,0.,4.8
1979-07-30 03:10:44.570 ,1,0,13.,4.8,704.,4.8,0.,4.8,0.,4.8
1979-07-30 03:10:49.360 ,1,0,15.,4.8,640.,4.8,0.,4.8,0.,4.8
1979-07-30 03:10:54.160 ,1,0,11.,4.8,656.,4.8,0.,4.8,0.,4.8
1979-07-30 03:10:58.970 ,1,0,,0,,0,,0,,0
1979-07-30 03:11:03.770 ,1,0,10.,4.8,640.,4.8,0.,4.8,0.,4.8
1979-07-30 03:11:08.570 ,1,0,13.,4.8,720.,4.8,0.,4.8,0.,4.8
1979-07-30 03:11:13.360 ,0,0,16.,4.8,688.,4.8,0.,4.8,0.,4.8
1979-07-30 03:11:18.160 ,0,0,14.,4.8,720.,4.8,0.,4.8,0.,4.8
1979-07-30 03:11:22.970 ,0,0,11.,4.8,656.,4.8,0.,4.8,0.,4.8
1979-07-30 03:11:27.770 ,0,0,9.,4.8,656.,4.8,0.,4.8,0.,4.8
1979-07-30 03:11:32.570 ,0,0,7.,4.8,688.,4.8,0.,4.8,0.,4.8
1979-07-30 03:11:37.360 ,0,0,23.,4.8,720.,4.8,0.,4.8,0.,4.8
1979-07-30 03:11:42.170 ,0,0,24.,4.8,624.,4.8,0.,4.8,0.,4.8
1979-07-30 03:11:46.970 ,0,0,14.,4.8,592.,4.8,0.,4.8,0.,4.8
1979-07-30 03:11:51.770 ,0,0,13.,4.8,624.,4.8,0.,4.8,0.,4.8
1979-07-30 03:11:56.570 ,0,0,14.,4.8,640.,4.8,0.,4.8,0.,4.8
1979-07-30 03:12:01.360 ,0,0,16.,4.8,688.,4.8,0.,4.8,0.,4.8
1979-07-30 03:12:06.170 ,0,0,11.,4.8,688.,4.8,0.,4.8,0.,4.8
1979-07-30 03:12:10.970 ,0,0,15.,4.8,672.,4.8,0.,4.8,0.,4.8
1979-07-30 03:12:15.770 ,0,0,10.,4.8,688.,4.8,0.,4.8,0.,4.8
1979-07-30 03:12:20.570 ,0,0,20.,4.8,672.,4.8,0.,4.8,0.,4.8
1979-07-30 03:12:25.360 ,0,0,14.,4.8,640.,4.8,0.,4.8,0.,4.8
1979-07-30 03:12:30.160 ,0,0,15.,4.8,688.,4.8,0.,4.8,0.,4.8
1979-07-30 03:12:34.970 ,0,0,12.,4.8,640.,4.8,0.,4.8,0.,4.8
1979-07-30 03:12:39.770 ,0,0,13.,4.8,688.,4.8,0.,4.8,0.,4.8
1979-07-30 03:12:44.570 ,0,0,18.,4.8,720.,4.8,0.,4.8,0.,4.8
1979-07-30 03:12:49.360 ,0,0,10.,4.8,704.,4.8,0.,4.8,0.,4.8
1979-07-30 03:12:54.160 ,0,0,10.,4.8,688.,4.8,0.,4.8,0.,4.8
1979-07-30 03:12:58.970 ,0,0,16.,4.8,720.,4.8,0.,4.8,0.,4.8
1979-07-30 03:13:03.770 ,0,0,20.,4.8,672.,4.8,0.,4.8,0.,4.8
1979-07-30 03:13:08.570 ,0,0,17.,4.8,672.,4.8,0.,4.8,0.,4.8
1979-07-30 03:13:13.360 ,0,0,17.,4.8,640.,4.8,0.,4.8,0.,4.8
1979-07-30 03:13:18.160 ,0,0,18.,4.8,656.,4.8,0.,4.8,0.,4.8
1979-07-30 03:13:22.970 ,0,0,18.,4.8,592.,4.8,0.,4.8,0.,4.8
1979-07-30 03:13:27.770 ,0,0,11.,4.8,640.,4.8,0.,4.8,0.,4.8
1979-07-30 03:13:32.570 ,0,0,6.,4.8,672.,4.8,0.,4.8,0.,4.8
1979-07-30 03:13:37.360 ,2,0,10.,4.8,656.,4.8,0.,4.8,0.,4.8
1979-07-30 03:13:42.170 ,2,0,8.,4.8,656.,4.8,0.,4.8,0.,4.8
1979-07-30 03:13:46.970 ,2,0,8.,4.8,656.,4.8,0.,4.8,0.,4.8
1979-07-30 03:13:51.770 ,2,0,7.,4.8,640.,4.8,0.,4.8,0.,4.8
1979-07-30 03:13:56.570 ,2,0,12.,4.8,656.,4.8,0.,4.8,0.,4.8
1979-07-30 03:14:01.360 ,2,0,9.,4.8,656.,4.8,0.,4.8,0.,4.8
1979-07-30 03:14:06.160 ,2,0,14.,4.8,704.,4.8,0.,4.8,0.,4.8
1979-07-30 03:14:10.970 ,2,0,9.,4.8,656.,4.8,0.,4.8,0.,4.8
1979-07-30 03:14:15.770 ,2,0,15.,4.8,656.,4.8,0.,4.8,0.,4.8
1979-07-30 03:14:20.570 ,2,0,17.,4.8,656.,4.8,0.,4.8,0.,4.8
1979-07-30 03:14:25.360 ,3,0,7.,4.8,704.,4.8,0.,4.8,0.,4.8
1979-07-30 03:14:30.160 ,3,0,6.,4.8,672.,4.8,0.,4.8,0.,4.8
1979-07-30 03:14:34.960 ,3,0,9.,4.8,704.,4.8,0.,4.8,0.,4.8
1979-07-30 03:14:39.760 ,3,0,5.,4.8,624.,4.8,0.,4.8,0.,4.8
1979-07-30 03:14:44.560 ,3,0,15.,4.8,592.,4.8,0.,4.8,0.,4.8
1979-07-30 03:14:49.360 ,3,0,13.,4.8,624.,4.8,0.,4.8,0.,4.8
1979-07-30 03:14:54.160 ,3,0,3.,4.8,608.,4.8,0.,4.8,0.,4.8
1979-07-30 03:14:58.960 ,3,0,5.,4.8,576.,4.8,0.,4.8,0.,4.8
1979-07-30 03:15:03.760 ,3,0,3.,4.8,560.,4.8,0.,4.8,0.,4.8
1979-07-30 03:15:08.560 ,3,0,7.,4.8,608.,4.8,0.,4.8,0.,4.8
1979-07-30 03:15:13.360 ,4,0,4.,4.8,592.,4.8,0.,4.8,0.,4.8
1979-07-30 03:15:18.160 ,4,0,11.,4.8,656.,4.8,0.,4.8,0.,4.8
1979-07-30 03:15:22.960 ,4,0,22.,4.8,672.,4.8,0.,4.8,0.,4.8
1979-07-30 03:15:27.760 ,4,0,19.,4.8,672.,4.8,0.,4.8,0.,4.8
1979-07-30 03:15:32.560 ,4,0,11.,4.8,720.,4.8,0.,4.8,0.,4.8
1979-07-30 03:15:37.360 ,4,0,14.,4.8,704.,4.8,0.,4.8,0.,4.8
1979-07-30 03:15:42.160 ,4,0,13.,4.8,704.,4.8,0.,4.8,0.,4.8
1979-07-30 03:15:46.960 ,4,0,15.,4.8,624.,4.8,0.,4.8,0.,4.8
1979-07-30 03:15:51.760 ,4,0,15.,4.8,608.,4.8,0.,4.8,0.,4.8
1979-07-30 03:15:56.560 ,4,0,16.,4.8,704.,4.8,0.,4.8,0.,4.8
1979-07-30 03:16:01.360 ,5,0,11.,4.8,688.,4.8,0.,4.8,0.,4.8
1979-07-30 03:16:06.160 ,5,0,14.,4.8,656.,4.8,0.,4.8,0.,4.8
1979-07-30 03:16:10.960 ,5,0,10.,4.8,656.,4.8,0.,4.8,0.,4.8
1979-07-30 03:16:15.760 ,5,0,13.,4.8,672.,4.8,0.,4.8,0.,4.8
1979-07-30 03:16:20.560 ,5,0,14.,4.8,656.,4.8,0.,4.8,0.,4.8
1979-07-30 03:16:25.360 ,5,0,13.,4.8,640.,4.8,0.,4.8,0.,4.8
1979-07-30 03:16:30.160 ,5,0,14.,4.8,752.,4.8,0.,4.8,0.,4.8
1979-07-30 03:16:34.960 ,5,0,11.,4.8,720.,4.8,0.,4.8,0.,4.8
1979-07-30 03:16:39.760 ,5,0,5.,4.8,640.,4.8,0.,4.8,0.,4.8
1979-07-30 03:16:44.560 ,5,0,10.,4.8,656.,4.8,0.,4.8,0.,4.8
1979-07-30 03:16:49.360 ,6,0,16.,4.8,640.,4.8,0.,4.8,0.,4.8
1979-07-30 03:16:54.160 ,6,0,15.,4.8,592.,4.8,0.,4.8,0.,4.8
1979-07-30 03:16:58.960 ,6,0,11.,4.8,624.,4.8,0.,4.8,0.,4.8
1979-07-30 03:17:03.760 ,6,0,21.,4.8,592.,4.8,0.,4.8,0.,4.8
1979-07-30 03:17:08.560 ,6,0,10.,4.8,656.,4.8,0.,4.8,0.,4.8
1979-07-30 03:17:13.360 ,6,0,13.,4.8,576.,4.8,0.,4.8,0.,4.8
1979-07-30 03:17:18.160 ,6,0,19.,4.8,592.,4.8,0.,4.8,0.,4.8
1979-07-30 03:17:22.960 ,6,0,10.,4.8,624.,4.8,0.,4.8,0.,4.8
1979-07-30 03:17:27.760 ,6,0,18.,4.8,640.,4.8,0.,4.8,0.,4.8
1979-07-30 03:17:32.560 ,6,0,11.,4.8,656.,4.8,0.,4.8,0.,4.8
1979-07-30 03:17:37.360 ,7,0,9.,4.8,608.,4.8,0.,4.8,0.,4.8
1979-07-30 03:17:42.160 ,7,0,11.,4.8,608.,4.8,0.,4.8,0.,4.8
1979-07-30 03:17:46.960 ,7,0,7.,4.8,624.,4.8,0.,4.8,0.,4.8
1979-07-30 03:17:51.760 ,7,0,10.,4.8,608.,4.8,0.,4.8,0.,4.8
1979-07-30 03:17:56.560 ,7,0,10.,4.8,608.,4.8,0.,4.8,0.,4.8
1979-07-30 03:18:01.360 ,7,0,12.,4.8,640.,4.8,0.,4.8,0.,4.8
1979-07-30 03:18:06.160 ,7,0,8.,4.8,576.,4.8,0.,4.8,0.,4.8
1979-07-30 03:18:10.960 ,7,0,8.,4.8,592.,4.8,0.,4.8,0.,4.8
1979-07-30 03:18:15.760 ,7,0,7.,4.8,608.,4.8,0.,4.8,0.,4.8
1979-07-30 03:18:20.560 ,7,0,13.,4.8,608.,4.8,0.,4.8,0.,4.8
1979-07-30 03:18:25.360 ,7,0,14.,4.8,592.,4.8,0.,4.8,0.,4.8
1979-07-30 03:18:30.160 ,7,0,10.,4.8,592.,4.8,0.,4.8,0.,4.8
1979-07-30 03:18:34.960 ,7,0,10.,4.8,608.,4.8,0.,4.8,0.,4.8
1979-07-30 03:18:39.760 ,7,0,7.,4.8,656.,4.8,0.,4.8,0.,4.8
1979-07-30 03:18:44.560 ,7,0,12.,4.8,640.,4.8,0.,4.8,0.,4.8
1979-07-30 03:18:49.360 ,7,0,9.,4.8,640.,4.8,0.,4.8,0.,4.8
1979-07-30 03:18:54.160 ,7,0,18.,4.8,576.,4.8,0.,4.8,0.,4.8
1979-07-30 03:18:58.960 ,7,0,18.,4.8,592.,4.8,0.,4.8,0.,4.8
1979-07-30 03:19:03.760 ,7,0,9.,4.8,608.,4.8,0.,4.8,0.,4.8
1979-07-30 03:19:08.560 ,7,0,11.,4.8,592.,4.8,0.,4.8,0.,4.8
1979-07-30 03:19:13.360 ,6,0,15.,4.8,560.,4.8,0.,4.8,0.,4.8
1979-07-30 03:19:18.160 ,6,0,8.,4.8,560.,4.8,0.,4.8,0.,4.8
1979-07-30 03:19:22.960 ,6,0,20.,4.8,576.,4.8,0.,4.8,0.,4.8
1979-07-30 03:19:27.760 ,6,0,8.,4.8,592.,4.8,0.,4.8,0.,4.8
1979-07-30 03:19:32.560 ,6,0,10.,4.8,624.,4.8,0.,4.8,0.,4.8
1979-07-30 03:19:37.360 ,6,0,12.,4.8,608.,4.8,1.,4.8,0.,4.8
1979-07-30 03:19:42.160 ,6,0,10.,4.8,640.,4.8,0.,4.8,0.,4.8
1979-07-30 03:19:46.960 ,6,0,8.,4.8,624.,4.8,0.,4.8,0.,4.8
1979-07-30 03:19:51.760 ,6,0,19.,4.8,624.,4.8,0.,4.8,0.,4.8
1979-07-30 03:19:56.560 ,6,0,18.,4.8,640.,4.8,0.,4.8,0.,4.8
1979-07-30 03:20:01.360 ,5,0,17.,4.8,560.,4.8,0.,4.8,0.,4.8
1979-07-30 03:20:06.160 ,5,0,11.,4.8,576.,4.8,0.,4.8,0.,4.8
1979-07-30 03:20:10.960 ,5,0,14.,4.8,624.,4.8,0.,4.8,0.,4.8
1979-07-30 03:20:15.760 ,5,0,16.,4.8,640.,4.8,0.,4.8,0.,4.8
1979-07-30 03:20:20.560 ,5,0,10.,4.8,656.,4.8,0.,4.8,0.,4.8
1979-07-30 03:20:25.360 ,5,0,13.,4.8,592.,4.8,0.,4.8,0.,4.8
1979-07-30 03:20:30.160 ,5,0,11.,4.8,624.,4.8,0.,4.8,0.,4.8
1979-07-30 03:20:34.960 ,5,0,15.,4.8,672.,4.8,0.,4.8,0.,4.8
1979-07-30 03:20:39.760 ,5,0,11.,4.8,656.,4.8,0.,4.8,0.,4.8
1979-07-30 03:20:44.560 ,5,0,13.,4.8,592.,4.8,0.,4.8,0.,4.8
1979-07-30 03:20:49.360 ,4,0,14.,4.8,624.,4.8,0.,4.8,0.,4.8
1979-07-30 03:20:54.160 ,4,0,12.,4.8,672.,4.8,0.,4.8,0.,4.8
1979-07-30 03:20:58.960 ,4,0,12.,4.8,656.,4.8,0.,4.8,0.,4.8
1979-07-30 03:21:03.760 ,4,0,12.,4.8,672.,4.8,0.,4.8,0.,4.8
1979-07-30 03:21:08.560 ,4,0,11.,4.8,656.,4.8,0.,4.8,0.,4.8
1979-07-30 03:21:13.360 ,4,0,14.,4.8,656.,4.8,0.,4.8,0.,4.8
1979-07-30 03:21:18.160 ,4,0,15.,4.8,608.,4.8,0.,4.8,0.,4.8
1979-07-30 03:21:22.960 ,4,0,11.,4.8,640.,4.8,0.,4.8,0.,4.8
1979-07-30 03:21:27.760 ,4,0,11.,4.8,704.,4.8,0.,4.8,0.,4.8
1979-07-30 03:21:32.560 ,4,0,8.,4.8,624.,4.8,0.,4.8,0.,4.8
1979-07-30 03:21:37.360 ,3,0,10.,4.8,656.,4.8,0.,4.8,0.,4.8
1979-07-30 03:21:42.160 ,3,0,9.,4.8,608.,4.8,0.,4.8,0.,4.8
1979-07-30 03:21:46.960 ,3,0,6.,4.8,576.,4.8,0.,4.8,0.,4.8
1979-07-30 03:21:51.760 ,3,0,10.,4.8,592.,4.8,0.,4.8,0.,4.8
1979-07-30 03:21:56.560 ,3,0,3.,4.8,592.,4.8,0.,4.8,0.,4.8
1979-07-30 03:22:01.360 ,3,0,5.,4.8,624.,4.8,0.,4.8,0.,4.8
1979-07-30 03:22:06.160 ,3,0,9.,4.8,576.,4.8,1.,4.8,0.,4.8
1979-07-30 03:22:10.960 ,3,0,6.,4.8,560.,4.8,0.,4.8,0.,4.8
1979-07-30 03:22:15.760 ,3,0,5.,4.8,560.,4.8,0.,4.8,0.,4.8
1979-07-30 03:22:20.560 ,3,0,11.,4.8,608.,4.8,0.,4.8,0.,4.8
1979-07-30 03:22:25.360 ,2,0,12.,4.8,608.,4.8,0.,4.8,0.,4.8
1979-07-30 03:22:30.160 ,2,0,8.,4.8,592.,4.8,0.,4.8,0.,4.8
1979-07-30 03:22:34.960 ,2,0,16.,4.8,592.,4.8,0.,4.8,0.,4.8
1979-07-30 03:22:39.760 ,2,0,7.,4.8,576.,4.8,0.,4.8,0.,4.8
1979-07-30 03:22:44.560 ,2,0,8.,4.8,608.,4.8,0.,4.8,0.,4.8
1979-07-30 03:22:49.360 ,2,0,14.,4.8,576.,4.8,0.,4.8,0.,4.8
1979-07-30 03:22:54.160 ,2,0,16.,4.8,624.,4.8,0.,4.8,0.,4.8
1979-07-30 03:22:58.960 ,2,0,14.,4.8,576.,4.8,0.,4.8,0.,4.8
1979-07-30 03:23:03.760 ,2,0,6.,4.8,608.,4.8,0.,4.8,0.,4.8
1979-07-30 03:23:08.560 ,2,0,7.,4.8,592.,4.8,0.,4.8,0.,4.8
1979-07-30 03:23:13.360 ,0,0,7.,4.8,576.,4.8,0.,4.8,0.,4.8
1979-07-30 03:23:18.160 ,0,0,9.,4.8,592.,4.8,0.,4.8,0.,4.8
1979-07-30 03:23:22.960 ,0,0,4.,4.8,544.,4.8,0.,4.8,0.,4.8
1979-07-30 03:23:27.760 ,0,0,11.,4.8,560.,4.8,0.,4.8,0.,4.8
1979-07-30 03:23:32.560 ,0,0,,0,,0,,0,,0
1979-07-30 03:23:37.360 ,0,0,15.,4.8,576.,4.8,0.,4.8,0.,4.8
1979-07-30 03:23:42.160 ,0,0,8.,4.8,592.,4.8,0.,4.8,0.,4.8
1979-07-30 03:23:46.960 ,0,0,15.,4.8,656.,4.8,0.,4.8,0.,4.8
1979-07-30 03:23:51.760 ,0,0,12.,4.8,608.,4.8,0.,4.8,0.,4.8
1979-07-30 03:23:56.560 ,0,0,11.,4.8,576.,4.8,0.,4.8,0.,4.8
1979-07-30 03:24:01.360 ,0,0,11.,4.8,624.,4.8,0.,4.8,0.,4.8
1979-07-30 03:24:06.160 ,0,0,14.,4.8,592.,4.8,0.,4.8,0.,4.8
1979-07-30 03:24:10.960 ,0,0,9.,4.8,656.,4.8,0.,4.8,0.,4.8
1979-07-30 03:24:15.760 ,0,0,8.,4.8,640.,4.8,0.,4.8,0.,4.8
1979-07-30 03:24:20.560 ,0,0,10.,4.8,640.,4.8,0.,4.8,0.,4.8
1979-07-30 03:24:25.360 ,0,0,16.,4.8,672.,4.8,0.,4.8,0.,4.8
1979-07-30 03:24:30.160 ,0,0,15.,4.8,608.,4.8,0.,4.8,0.,4.8
1979-07-30 03:24:34.960 ,0,0,9.,4.8,608.,4.8,0.,4.8,0.,4.8
1979-07-30 03:24:39.760 ,0,0,14.,4.8,672.,4.8,0.,4.8,0.,4.8
1979-07-30 03:24:44.560 ,0,0,6.,4.8,640.,4.8,0.,4.8,0.,4.8
1979-07-30 03:24:49.360 ,0,0,13.,4.8,640.,4.8,0.,4.8,0.,4.8
1979-07-30 03:24:54.160 ,0,0,13.,4.8,608.,4.8,0.,4.8,0.,4.8
1979-07-30 03:24:58.960 ,0,0,9.,4.8,640.,4.8,0.,4.8,0.,4.8
1979-07-30 03:25:03.760 ,0,0,13.,4.8,624.,4.8,0.,4.8,0.,4.8
1979-07-30 03:25:08.560 ,0,0,7.,4.8,704.,4.8,0.,4.8,0.,4.8
1979-07-30 03:25:13.360 ,0,0,6.,4.8,640.,4.8,0.,4.8,0.,4.8
1979-07-30 03:25:18.160 ,0,0,9.,4.8,608.,4.8,0.,4.8,0.,4.8
1979-07-30 03:25:22.960 ,0,0,13.,4.8,688.,4.8,0.,4.8,0.,4.8
1979-07-30 03:25:27.760 ,0,0,11.,4.8,656.,4.8,0.,4.8,0.,4.8
1979-07-30 03:25:32.560 ,0,0,13.,4.8,624.,4.8,0.,4.8,0.,4.8
1979-07-30 03:25:37.360 ,1,0,10.,4.8,672.,4.8,0.,4.8,0.,4.8
1979-07-30 03:25:42.160 ,1,0,11.,4.8,624.,4.8,0.,4.8,0.,4.8
1979-07-30 03:25:46.960 ,1,0,10.,4.8,608.,4.8,0.,4.8,0.,4.8
1979-07-30 03:25:51.760 ,1,0,9.,4.8,624.,4.8,0.,4.8,0.,4.8
1979-07-30 03:25:56.560 ,1,0,13.,4.8,608.,4.8,0.,4.8,0.,4.8
1979-07-30 03:26:01.360 ,1,0,10.,4.8,656.,4.8,0.,4.8,0.,4.8
1979-07-30 03:26:06.160 ,1,0,13.,4.8,672.,4.8,0.,4.8,0.,4.8
1979-07-30 03:26:10.960 ,1,0,8.,4.8,624.,4.8,0.,4.8,0.,4.8
1979-07-30 03:26:15.760 ,1,0,15.,4.8,608.,4.8,0.,4.8,0.,4.8
1979-07-30 03:26:20.560 ,1,0,11.,4.8,592.,4.8,0.,4.8,0.,4.8
1979-07-30 03:26:25.360 ,2,0,8.,4.8,592.,4.8,0.,4.8,0.,4.8
1979-07-30 03:26:30.160 ,2,0,13.,4.8,592.,4.8,0.,4.8,0.,4.8
1979-07-30 03:26:34.960 ,2,0,7.,4.8,608.,4.8,0.,4.8,0.,4.8
1979-07-30 03:26:39.760 ,2,0,9.,4.8,624.,4.8,0.,4.8,0.,4.8
1979-07-30 03:26:44.560 ,2,0,14.,4.8,592.,4.8,0.,4.8,0.,4.8
1979-07-30 03:26:49.360 ,2,0,12.,4.8,576.,4.8,0.,4.8,0.,4.8
1979-07-30 03:26:54.160 ,2,0,9.,4.8,624.,4.8,0.,4.8,0.,4.8
1979-07-30 03:26:58.960 ,2,0,10.,4.8,608.,4.8,0.,4.8,0.,4.8
1979-07-30 03:27:03.760 ,2,0,13.,4.8,656.,4.8,0.,4.8,0.,4.8
1979-07-30 03:27:08.560 ,2,0,10.,4.8,624.,4.8,0.,4.8,0.,4.8
1979-07-30 03:27:13.360 ,3,0,12.,4.8,640.,4.8,0.,4.8,0.,4.8
1979-07-30 03:27:18.160 ,3,0,5.,4.8,624.,4.8,0.,4.8,0.,4.8
1979-07-30 03:27:22.960 ,3,0,6.,4.8,672.,4.8,0.,4.8,0.,4.8
1979-07-30 03:27:27.760 ,3,0,8.,4.8,656.,4.8,0.,4.8,0.,4.8
1979-07-30 03:27:32.560 ,3,0,8.,4.8,656.,4.8,0.,4.8,0.,4.8
1979-07-30 03:27:37.360 ,3,0,6.,4.8,608.,4.8,0.,4.8,0.,4.8
1979-07-30 03:27:42.160 ,3,0,11.,4.8,640.,4.8,0.,4.8,0.,4.8
1979-07-30 03:27:46.960 ,3,0,11.,4.8,672.,4.8,0.,4.8,0.,4.8
1979-07-30 03:27:51.760 ,3,0,6.,4.8,672.,4.8,0.,4.8,0.,4.8
1979-07-30 03:27:56.560 ,3,0,4.,4.8,672.,4.8,0.,4.8,0.,4.8
1979-07-30 03:28:01.360 ,4,0,4.,4.8,672.,4.8,0.,4.8,0.,4.8
1979-07-30 03:28:06.160 ,4,0,9.,4.8,608.,4.8,0.,4.8,0.,4.8
1979-07-30 03:28:10.960 ,4,0,12.,4.8,656.,4.8,0.,4.8,0.,4.8
1979-07-30 03:28:15.760 ,4,0,18.,4.8,704.,4.8,0.,4.8,0.,4.8
1979-07-30 03:28:20.560 ,4,0,11.,4.8,672.,4.8,0.,4.8,0.,4.8
1979-07-30 03:28:25.360 ,4,0,13.,4.8,688.,4.8,0.,4.8,0.,4.8
1979-07-30 03:28:30.160 ,4,0,10.,4.8,704.,4.8,0.,4.8,0.,4.8
1979-07-30 03:28:34.960 ,4,0,11.,4.8,656.,4.8,0.,4.8,0.,4.8
1979-07-30 03:28:39.760 ,4,0,14.,4.8,704.,4.8,0.,4.8,0.,4.8
1979-07-30 03:28:44.560 ,4,0,15.,4.8,640.,4.8,0.,4.8,0.,4.8
1979-07-30 03:28:49.360 ,5,0,12.,4.8,640.,4.8,0.,4.8,0.,4.8
1979-07-30 03:28:54.160 ,5,0,17.,4.8,704.,4.8,0.,4.8,0.,4.8
1979-07-30 03:28:58.960 ,5,0,9.,4.8,704.,4.8,0.,4.8,0.,4.8
1979-07-30 03:29:03.760 ,5,0,17.,4.8,688.,4.8,0.,4.8,0.,4.8
1979-07-30 03:29:08.560 ,5,0,11.,4.8,704.,4.8,0.,4.8,0.,4.8
1979-07-30 03:29:13.360 ,5,0,20.,4.8,672.,4.8,0.,4.8,0.,4.8
1979-07-30 03:29:18.160 ,5,0,14.,4.8,720.,4.8,0.,4.8,0.,4.8
1979-07-30 03:29:22.960 ,5,0,20.,4.8,736.,4.8,0.,4.8,0.,4.8
1979-07-30 03:29:27.760 ,5,0,12.,4.8,752.,4.8,0.,4.8,0.,4.8
1979-07-30 03:29:32.560 ,5,0,14.,4.8,784.,4.8,0.,4.8,0.,4.8
1979-07-30 03:29:37.360 ,6,0,11.,4.8,736.,4.8,0.,4.8,0.,4.8
1979-07-30 03:29:42.160 ,6,0,14.,4.8,720.,4.8,0.,4.8,0.,4.8
1979-07-30 03:29:46.960 ,6,0,11.,4.8,672.,4.8,0.,4.8,0.,4.8
1979-07-30 03:29:51.760 ,6,0,9.,4.8,736.,4.8,0.,4.8,0.,4.8
1979-07-30 03:29:56.560 ,6,0,13.,4.8,736.,4.8,0.,4.8,0.,4.8
1979-07-30 03:30:01.360 ,6,0,12.,4.8,736.,4.8,0.,4.8,0.,4.8
1979-07-30 03:30:06.160 ,6,0,7.,4.8,640.,4.8,0.,4.8,0.,4.8
1979-07-30 03:30:10.960 ,6,0,10.,4.8,656.,4.8,0.,4.8,0.,4.8
1979-07-30 03:30:15.760 ,6,0,9.,4.8,688.,4.8,0.,4.8,0.,4.8
1979-07-30 03:30:20.560 ,6,0,20.,4.8,720.,4.8,0.,4.8,0.,4.8
1979-07-30 03:30:25.360 ,7,0,13.,4.8,704.,4.8,0.,4.8,0.,4.8
1979-07-30 03:30:30.160 ,7,0,13.,4.8,656.,4.8,0.,4.8,0.,4.8
1979-07-30 03:30:34.960 ,7,0,13.,4.8,672.,4.8,0.,4.8,0.,4.8
1979-07-30 03:30:39.760 ,7,0,8.,4.8,592.,4.8,0.,4.8,0.,4.8
1979-07-30 03:30:44.560 ,7,0,9.,4.8,672.,4.8,0.,4.8,0.,4.8
1979-07-30 03:30:49.360 ,7,0,14.,4.8,672.,4.8,0.,4.8,0.,4.8
1979-07-30 03:30:54.160 ,7,0,12.,4.8,704.,4.8,0.,4.8,0.,4.8
1979-07-30 03:30:58.960 ,7,0,12.,4.8,736.,4.8,0.,4.8,0.,4.8
1979-07-30 03:31:03.760 ,7,0,19.,4.8,672.,4.8,0.,4.8,0.,4.8
1979-07-30 03:31:08.560 ,7,0,9.,4.8,688.,4.8,0.,4.8,0.,4.8
1979-07-30 03:31:13.360 ,3,1,10.,4.8,720.,4.8,0.,4.8,0.,4.8
1979-07-30 03:31:18.160 ,3,1,13.,4.8,704.,4.8,0.,4.8,0.,4.8
1979-07-30 03:31:22.960 ,3,1,12.,4.8,752.,4.8,0.,4.8,0.,4.8
1979-07-30 03:31:27.760 ,3,1,15.,4.8,784.,4.8,0.,4.8,0.,4.8
1979-07-30 03:31:32.560 ,3,1,6.,4.8,672.,4.8,0.,4.8,0.,4.8
1979-07-30 03:31:37.360 ,0,1,12.,4.8,752.,4.8,0.,4.8,0.,4.8
1979-07-30 03:31:42.160 ,0,1,10.,4.8,720.,4.8,0.,4.8,0.,4.8
1979-07-30 03:31:46.960 ,0,1,10.,4.8,720.,4.8,0.,4.8,0.,4.8
1979-07-30 03:31:51.760 ,0,1,9.,4.8,768.,4.8,0.,4.8,0.,4.8